Location: Dugenta
(41.1333°N, 14.4500°E)
Time: 13:31:05
(UTC+00:00)

Meteor 1-18 Rocket - Pass Details

Date: 03 March 2021
Orbit: 836 x 909 km, 81.2° (Epoch: 13 April)

Event Time Altitude Azimuth Distance (km) Brightness Sun altitude
Rises 17:49:26 0° 351° (N) 3,548 7.6 -10.9°
Reaches altitude 10° 17:51:55 10° 353° (N) 2,603 6.9 -11.4°
Maximum altitude 17:57:53 78° 80° (E) 929 4.3 -12.5°
Drops below altitude 10° 18:03:45 10° 167° (SSE) 2,565 6.5 -13.6°
Sets 18:06:11 0° 169° (SSE) 3,493 7.3 -14.1°
